User: anonymous   Login
Location: Unspecified
(0.0000°N, 0.0000°E)
Time: 05:21:23
(UTC+00:00)
Language:

TBA - TO BE ASSIGNED - Orbit

View from above orbital plane
View from above orbital plane
View from above satellite
View from above satellite

Ground track
Ground track

The orbit is defined by the following mean orbital elements,

1 67946U          26145.31867282 +.00000000 +00000-0 +55620-3 0 00001
2 67946  43.0037 117.6400 0002074 289.8532  70.2096 15.27596840    01
Epoch (UTC): 25 May 2026 07:38:53
Eccentricity: 0.0002074
inclination: 43.0037°
perigee height: 482 km
apogee height: 484 km
right ascension of ascending node: 117.6400°
argument of perigee: 289.8532°
revolutions per day: 15.27596840
mean anomaly at epoch: 70.2096°

The dashed part of the orbit path shows where the satellite is in the earth's shadow,  

DLR